weather.gov     
National Weather Service

Terminal Aerodrome Forecast
NWS Homepage
This page is being discontinued on March 12, 2014.
The same data is available at this site. Please update your bookmarks.
Thank you, and we apologize for the inconvenience.
Please send an email to SR-SRH.Webmaster@noaa.gov with any concerns.


Current Version
Previous Version:    01  02  03  04  05  06  07  08  09  10  11  12  13  14  15  16  17  18  19  20  21  22  23  24  25  26  27  28  29  30  
   31  32  33  34  35  36  37  
[Printable]
212
FTUS44 KEWX 021100
TAFSAT
TAF
KSAT 021139Z 0212/0318 18011KT P6SM BKN015
     FM021500 18012KT P6SM BKN025
     FM021700 18012KT P6SM SCT050
     FM030400 17006KT P6SM SCT025 BKN040
      TEMPO 0304/0307 VRB20G30KT 3SM TSRA BKN025CB
     FM030700 01008KT P6SM -TSRA SCT025 BKN040CB
     FM031000 02012KT P6SM SCT050 SCT080=


U.S. Dept. of Commerce
NOAA National Weather Service
1325 East West Highway
Silver Spring, MD 20910
E-mail: w-nws.webmaster@noaa.gov
Page last modified: May 16, 2007
NATIONAL WEATHER SERVICE: for Safety, for Work, for Fun - FOR LIFE